Other Public Products
Issued by NWS Charleston, SC

Home | Current Version | Previous Version | Text Only | Print | Product List | Glossary On
Versions: 1 2 3 4 5 6 7 8 9 10 11 12 13 14 15 16 17 18 19 20 21 22 23 24 25 26 27 28 29 30 31 32 33 34 35 36 37 38 39 40 41 42 43 44 45 46 47 48 49 50
719
FPUS82 KCHS 242227
OPUCHS

TEST...KCHS/KSAV Gateway Observations...TEST
National Weather Service Charleston SC
600 PM EDT MON APR 24 2017

NOTE: "fair" indicates few or no clouds below 12,000 feet with no
significant weather and/or obstructions to visibility.

SCZ050-WAZ558-NCZ071-TXZ119-213-PAZ071-DCZ001-FLZ074-172-MI076-
NYZ176-178-MAZ016-IL014-TNZ027-NJZ106-GAZ044-MD014-242300-

...Gateway Observations for Charleston International...

CITY           SKY/WX    TMP DP  RH WIND       PRES   REMARKS
Chas Airport   PTSUNNY   71  63  75 NE9       29.58F
Seattle        CLOUDY    54  41  61 NW13      29.75R
Charlotte      LGT RAIN  55  52  89 N9        29.76S FOG
Dallas DFW     PTSUNNY   77  50  38 S20       29.71F
Dallas Love    PTSUNNY   78  47  33 S18       29.73F
Philladelphia  CLOUDY    57  41  55 E15       30.09S
Wash National  CLOUDY    56  52  86 NE14      30.01S
Baltimore      LGT RAIN  57  50  77 NE16      30.02F
Miami          PTSUNNY   84  66  54 W16G23    29.74R
Detroit        PTSUNNY   70  32  24 E12       29.94F
Newark         CLOUDY    56  41  57 SE5       30.14S
Laguardia      CLOUDY    58  43  57 NE8       30.13F
J F K          LGT RAIN  55  43  63 E9        30.15F
Boston Logan   PTSUNNY   61  46  57 E10       30.14S
Ft. Lauderdale MOSUNNY   85  66  53 W20       29.71R
Chicago O`Hare CLOUDY    71  28  20 E13       29.82F
Chicago Midway PTSUNNY   70  32  24 E13       29.83F
Houston Bush   MOSUNNY   80  49  33 VRB5      29.80F
Houston Hobby  MOSUNNY   79  51  37 S9        29.80F
Nashville      CLOUDY    67  54  63 NE7       29.80S
Atlanta        PTSUNNY   65  58  78 W13       29.73S

$$

GAZ044-118-TXZ119-213-NCZ071-DCZ001-MDZ014-506-PAZ021-071-NJZ106-
NYZ176-178-MAZ106-OHZ011-021-055-MIZ076-KYZ091-ILZ014-INZ047-
MNZ060-ONZ431-242300-

...Gateway Observations for Savannah International...

CITY           SKY/WX    TMP DP  RH WIND       PRES   REMARKS
Savannah Arpt  MOSUNNY   75  48  38 W15       29.63S
Atlanta        PTSUNNY   65  58  78 W13       29.73S
Charlotte      LGT RAIN  55  52  89 N9        29.76S FOG
Dallas DFW     PTSUNNY   77  50  38 S20       29.71F
Houston Bush   MOSUNNY   80  49  33 VRB5      29.80F
Wash National  CLOUDY    56  52  86 NE14      30.01S
Wash Dulles    LGT RAIN  51  48  89 NE8       30.02S
Baltimore      LGT RAIN  57  50  77 NE16      30.02F
Philadelphia   CLOUDY    57  41  55 E15       30.09S
Newark         CLOUDY    56  41  57 SE5       30.14S
Laguardia      CLOUDY    58  43  57 NE8       30.13F
J F K          LGT RAIN  55  43  63 E9        30.15F
Boston         PTSUNNY   61  46  57 E10       30.14S
Pittsburg      LGT RAIN  56  45  66 E8        29.99F
Akron          CLOUDY    67  44  43 SE16G23   29.94S
Cleveland      PTSUNNY   69  44  40 NE10      29.93F
Cincinnati     PTSUNNY   70  52  52 E17       29.80F
Columbus       CLOUDY    64  51  63 E15G23    29.87F
Detroit        PTSUNNY   70  32  24 E12       29.94F
Chicago O`Hare CLOUDY    71  28  20 E13       29.82F
Minneapolis    CLOUDY    69  28  21 S16G30    29.61S
Indianapolis   CLOUDY    75  44  33 E12G21    29.79F
Toronto Canada PTSUNNY   54  32  43 E12G18    30.09F

$$




USA.gov is the U.S. government's official web portal to all federal, state and local government web resources and services.